Location: Newark
(50.0306°N, 2.3272°E)
Time: 02:47:30
(UTC+00:00)

Courier 1B Rocket - All Passes

Search period start: 08 December 2019 00:00
Search period end: 18 December 2019 00:00
Orbit: 920 x 1202 km, 28.2° (Epoch: 07 December)

Date Brightness Start Highest point End Pass type
(mag) Time Alt. Az. Time Alt. Az. Time Alt. Az.
14 Dec - 06:08:22 10° S 06:09:25 10° S 06:10:27 10° S visible
15 Dec - 05:08:22 10° S 05:08:48 10° S 05:09:14 10° S visible
16 Dec - 05:58:24 10° SSW 06:00:09 11° S 06:01:52 10° SSE visible
17 Dec - 04:57:22 10° SSW 04:59:31 11° S 05:01:38 10° SSE visible
